"Timestamp","TZ","WindDir_Mean (deg)","WindSpd_Mean (km/h)","WindSpd_Min (km/h)","WindSpd_Max (km/h)","Temp_Mean (deg)","RH_Mean (%)","MSLP_Mean (hPa)","Rain_Acc (mm)","Rain_Intensity (mm/h)","Hail_Acc (hits/cm2)","Hail_Intensity (hits/cm2hr)","Solar_Mean (W/m2)"
2018/10/29 00:00:00.016,n,150,4.68,3.24,5.76,19.9,74.3,1016.62,0,0,0,0,0.040932
2018/10/29 00:01:00.000,n,180,5.4,4.32,6.12,19.9,74.1,1016.62,0,0,0,0,0.051384
2018/10/29 00:02:00.000,n,158,7.56,6.84,9,19.9,74,1016.62,0,0,0,0,0.040932
2018/10/29 00:03:00.000,n,118,4.32,3.96,5.04,19.8,74.2,1016.62,0,0,0,0,0.043526
2018/10/29 00:04:00.003,n,178,7.2,5.4,9,19.8,74.1,1016.62,0,0,0,0,0.043526
2018/10/29 00:05:00.001,n,185,5.76,3.6,6.84,19.8,74.1,1016.62,0,0,0,0,0.047035
2018/10/29 00:06:00.000,n,202,5.76,5.4,7.2,19.8,74.1,1016.52,0,0,0,0,0.047035
2018/10/29 00:07:00.011,n,149,6.12,5.4,7.56,19.8,73.4,1016.52,0,0,0,0,0.018272
2018/10/29 00:08:00.005,n,173,4.68,3.6,5.04,19.8,74,1016.42,0,0,0,0,0.025215
2018/10/29 00:09:00.002,n,59,2.88,2.88,3.24,19.9,74.3,1016.32,0,0,0,0,0.021744
2018/10/29 00:10:00.000,n,126,1.8,0.36,2.88,19.9,74.3,1016.32,0,0,0,0,0.025215
2018/10/29 00:11:00.000,n,113,9.36,9,10.08,19.9,73.3,1016.32,0,0,0,0,0.026093
2018/10/29 00:12:00.000,n,51,4.32,2.88,6.12,19.9,73.9,1016.32,0,0,0,0,0.024376
2018/10/29 00:13:00.006,n,146,2.16,1.08,4.32,19.9,73.9,1016.22,0,0,0,0,0.020866
2018/10/29 00:14:00.004,n,167,7.56,6.12,9.36,19.9,73.3,1016.22,0,0,0,0,0.023499
2018/10/29 00:15:00.001,n,146,11.88,11.52,12.6,19.9,73.2,1016.12,0,0,0,0,0.022621
2018/10/29 00:16:00.000,n,151,7.56,4.68,9,19.8,73.4,1016.12,0,0,0,0,0.016518
2018/10/29 00:17:00.011,n,130,3.96,2.88,5.04,19.8,73.7,1016.02,0,0,0,0,0.024376
2018/10/29 00:18:00.010,n,163,6.12,5.4,6.48,19.8,73.7,1015.92,0,0,0,0,0.022621
2018/10/29 00:19:00.000,n,143,7.2,6.48,8.64,19.8,73.3,1015.82,0,0,0,0,0.022621
2018/10/29 00:20:00.000,n,141,5.76,5.04,6.12,19.8,73.5,1015.72,0,0,0,0,0.020866
2018/10/29 00:21:00.005,n,106,6.48,6.12,7.56,19.8,73.9,1015.72,0,0,0,0,0.025215
2018/10/29 00:22:00.002,n,114,3.96,1.08,6.12,19.8,73.5,1015.72,0,0,0,0,0.023499
2018/10/29 00:23:00.000,n,68,5.4,4.32,6.84,19.8,73.4,1015.62,0,0,0,0,0.023499
2018/10/29 00:24:00.000,n,129,5.76,5.76,6.48,19.8,73.4,1015.62,0,0,0,0,0.023499
2018/10/29 00:25:00.011,n,127,1.08,0.72,1.8,19.8,73.2,1015.52,0,0,0,0,0.02697
2018/10/29 00:26:00.010,n,91,5.04,3.24,6.48,19.8,73.1,1015.52,0,0,0,0,0.023499
2018/10/29 00:27:00.007,n,72,7.92,6.84,8.64,19.8,73,1015.52,0,0,0,0,0.030441
2018/10/29 00:28:00.000,n,114,4.32,1.8,7.2,19.8,73,1015.52,0,0,0,0,0.022621
2018/10/29 00:29:00.000,n,130,8.28,6.84,9.36,19.8,72.7,1015.42,0,0,0,0,0.030441
2018/10/29 00:30:00.000,n,87,5.04,3.6,6.84,19.8,72.9,1015.42,0,0,0,0,0.021744
2018/10/29 00:31:00.000,n,69,5.76,3.6,7.56,19.8,72.9,1015.42,0,0,0,0,0.025215
2018/10/29 00:32:00.008,n,101,8.64,7.92,9,19.8,72.5,1015.32,0,0,0,0,0.026093
2018/10/29 00:33:00.005,n,115,13.32,9.72,15.84,19.8,72.4,1015.22,0,0,0,0,0.023499
2018/10/29 00:34:00.002,n,136,12.24,11.16,12.96,19.7,72.3,1015.12,0,0,0,0,0.022621
2018/10/29 00:35:00.000,n,178,1.8,0.72,2.88,19.7,72.3,1015.12,0,0,0,0,0.025215
2018/10/29 00:36:00.013,n,93,6.84,5.76,9,19.7,72.7,1015.02,0,0,0,0,0.025215
2018/10/29 00:37:00.000,n,83,4.32,2.88,5.76,19.7,72.8,1015.12,0,0,0,0,0.01915
2018/10/29 00:38:00.000,n,73,4.32,3.24,5.04,19.7,72.5,1015.12,0,0,0,0,0.026093
2018/10/29 00:39:00.004,n,83,3.24,0.72,5.04,19.7,72.6,1015.12,0,0,0,0,0.021744
2018/10/29 00:40:00.002,n,136,12.96,10.440002,14.4,19.7,72.3,1015.12,0,0,0,0,0.020866
2018/10/29 00:41:00.000,n,127,7.2,5.76,9,19.7,72.5,1015.12,0,0,0,0,0.021744
2018/10/29 00:42:00.000,n,124,3.96,2.88,5.4,19.7,72.2,1015.22,0,0,0,0,0.021744
2018/10/29 00:43:00.009,n,123,8.28,6.84,9.72,19.7,72.3,1015.22,0,0,0,0,0.01915
2018/10/29 00:44:00.006,n,103,6.48,4.68,7.2,19.7,72.3,1015.22,0,0,0,0,0.021744
2018/10/29 00:45:00.003,n,145,12.6,11.88,13.32,19.7,72.2,1015.22,0,0,0,0,0.020866
2018/10/29 00:46:00.001,n,186,5.76,5.04,6.12,19.7,72.2,1015.32,0,0,0,0,0.018272
2018/10/29 00:47:00.000,n,100,4.32,3.6,4.32,19.7,72.4,1015.32,0,0,0,0,0.020866
2018/10/29 00:48:00.000,n,108,7.2,6.48,7.92,19.7,72.4,1015.42,0,0,0,0,0.027847
2018/10/29 00:49:00.000,n,147,5.76,2.52,7.56,19.7,72.2,1015.42,0,0,0,0,0.02697
2018/10/29 00:50:00.004,n,119,8.28,7.92,9.72,19.7,72.2,1015.52,0,0,0,0,0.024376
2018/10/29 00:51:00.003,n,98,4.32,3.6,4.68,19.7,72.3,1015.52,0,0,0,0,0.026093
2018/10/29 00:52:00.000,n,133,6.84,6.48,7.56,19.7,72.4,1015.52,0,0,0,0,0.026093
2018/10/29 00:53:00.013,n,150,7.2,5.04,11.52,19.7,72.3,1015.52,0,0,0,0,0.02697
2018/10/29 00:54:00.010,n,139,3.24,0.72,5.04,19.7,72.4,1015.52,0,0,0,0,0.02697
2018/10/29 00:55:00.000,n,27,1.8,0.36,2.16,19.7,72.3,1015.62,0,0,0,0,0.024376
2018/10/29 00:56:00.000,n,147,3.6,2.16,5.4,19.7,72.2,1015.62,0,0,0,0,0.021744
2018/10/29 00:57:00.002,n,85,5.04,2.52,7.2,19.7,72.3,1015.62,0,0,0,0,0.023499
2018/10/29 00:58:00.001,n,203,6.12,5.76,6.84,19.7,72.4,1015.62,0,0,0,0,0.01915
2018/10/29 00:59:00.000,n,125,3.96,1.44,6.12,19.7,72.1,1015.62,0,0,0,0,0.021744
2018/10/29 01:00:00.000,n,152,3.96,1.08,6.12,19.7,72.3,1015.62,0,0,0,0,0.026093
2018/10/29 01:01:00.008,n,126,5.76,5.4,6.48,19.7,71.9,1015.62,0,0,0,0,0.01915
2018/10/29 01:02:00.005,n,162,9.72,8.64,10.440002,19.7,72,1015.62,0,0,0,0,0.028725
2018/10/29 01:03:00.002,n,138,8.64,7.56,9.36,19.7,72.1,1015.62,0,0,0,0,0.022621
2018/10/29 01:04:00.000,n,137,6.12,5.4,6.84,19.7,72.1,1015.52,0,0,0,0,0.022621
2018/10/29 01:05:00.000,n,155,7.92,6.84,8.64,19.7,72.1,1015.52,0,0,0,0,0.021744
2018/10/29 01:06:00.000,n,221,3.96,2.16,4.32,19.7,72.2,1015.52,0,0,0,0,0.021744
2018/10/29 01:07:00.006,n,176,2.52,1.44,6.12,19.7,72.3,1015.52,0,0,0,0,0.02697
2018/10/29 01:08:00.004,n,135,3.96,2.52,4.68,19.7,72.5,1015.52,0,0,0,0,0.019989
2018/10/29 01:09:00.001,n,191,4.32,3.6,4.68,19.7,72.5,1015.52,0,0,0,0,0.023499
2018/10/29 01:10:00.000,n,149,6.12,5.76,7.2,19.7,72.2,1015.52,0,0,0,0,0.017395
2018/10/29 01:11:00.012,n,150,14.4,12.96,15.48,19.7,72.1,1015.52,0,0,0,0,0.02697
2018/10/29 01:12:00.010,n,140,3.96,1.08,6.12,19.7,72.4,1015.52,0,0,0,0,0.019989
2018/10/29 01:13:00.000,n,128,6.84,6.12,7.56,19.7,72.6,1015.52,0,0,0,0,0.020866
2018/10/29 01:14:00.000,n,150,9.72,8.28,10.440002,19.7,72.6,1015.52,0,0,0,0,0.019989
2018/10/29 01:15:00.000,n,141,7.56,6.48,9,19.7,72.4,1015.42,0,0,0,0,0.025215
2018/10/29 01:16:00.000,n,142,5.4,2.52,6.48,19.7,72.8,1015.42,0,0,0,0,0.019989
2018/10/29 01:17:00.004,n,161,4.68,3.24,7.56,19.7,73.2,1015.42,0,0,0,0,0.022621
2018/10/29 01:18:00.010,n,142,3.24,1.44,4.68,19.7,73.1,1015.42,0,0,0,0,0.022621
2018/10/29 01:19:00.000,n,123,5.04,4.32,6.48,19.7,73.1,1015.42,0,0,0,0,0.021744
2018/10/29 01:20:00.005,n,172,6.84,6.12,7.56,19.7,73.1,1015.42,0,0,0,0,0.021744
2018/10/29 01:21:00.010,n,153,5.76,5.04,6.12,19.6,73.3,1015.42,0,0,0,0,0.021744
2018/10/29 01:22:00.000,n,127,3.6,2.88,4.68,19.6,73.5,1015.42,0,0,0,0,0.01915
2018/10/29 01:23:00.000,n,138,6.84,6.84,7.56,19.6,73.2,1015.42,0,0,0,0,0.024376
2018/10/29 01:24:00.000,n,147,6.12,6.12,6.48,19.6,73.7,1015.52,0,0,0,0,0.018272
2018/10/29 01:25:00.000,n,150,3.96,2.88,5.04,19.6,73.6,1015.52,0,0,0,0,0.01564
2018/10/29 01:26:00.005,n,136,5.04,3.96,6.48,19.6,73.8,1015.52,0,0,0,0,0.018272
2018/10/29 01:27:00.011,n,143,11.88,11.16,12.6,19.6,73.4,1015.52,0,0,0,0,0.018272
2018/10/29 01:28:00.000,n,147,1.08,0.36,4.68,19.6,73.7,1015.52,0,0,0,0,0.023499
2018/10/29 01:29:00.006,n,138,2.52,1.08,5.4,19.6,73.8,1015.52,0,0,0,0,0.016518
2018/10/29 01:30:00.011,n,127,5.76,5.04,6.48,19.5,73.5,1015.52,0,0,0,0,0.020866
2018/10/29 01:31:00.001,n,146,4.32,3.24,4.68,19.5,73.6,1015.52,0,0,0,0,0.021744
2018/10/29 01:32:00.000,n,149,3.24,1.8,4.32,19.5,73.7,1015.52,0,0,0,0,0.019989
2018/10/29 01:33:00.000,n,142,4.68,3.24,9.36,19.5,73.4,1015.52,0,0,0,0,0.01915
2018/10/29 01:34:00.003,n,162,7.2,6.48,7.56,19.5,73.8,1015.52,0,0,0,0,0.024376
2018/10/29 01:35:00.008,n,162,9.36,8.28,10.8,19.5,73.6,1015.52,0,0,0,0,0.030479
2018/10/29 01:36:00.000,n,118,4.32,3.96,5.04,19.5,73.7,1015.52,0,0,0,0,0.033073
2018/10/29 01:37:00.000,n,150,7.92,6.84,8.64,19.5,73.8,1015.52,0,0,0,0,0.031357
2018/10/29 01:38:00.006,n,172,4.68,3.24,5.4,19.5,73.8,1015.52,0,0,0,0,0.033951
2018/10/29 01:39:00.012,n,199,5.76,5.04,6.48,19.5,73.8,1015.52,0,0,0,0,0.033951
2018/10/29 01:40:00.001,n,174,8.28,6.12,10.8,19.5,73.6,1015.52,0,0,0,0,0.037422
2018/10/29 01:41:00.000,n,149,6.12,5.4,7.2,19.5,73.6,1015.62,0,0,0,0,0.032196
2018/10/29 01:42:00.000,n,201,8.28,6.12,9,19.5,73.6,1015.52,0,0,0,0,0.038338
2018/10/29 01:43:00.002,n,112,9.72,8.28,10.8,19.5,73.6,1015.52,0,0,0,0,0.039177
2018/10/29 01:44:00.007,n,139,9.72,9,10.08,19.5,73.4,1015.42,0,0,0,0,0.033951
2018/10/29 01:45:00.000,n,128,4.68,3.96,5.76,19.5,73.4,1015.42,0,0,0,0,0.033951
2018/10/29 01:46:00.001,n,104,2.88,2.52,3.24,19.5,73.5,1015.42,0,0,0,0,0.040932
2018/10/29 01:47:00.007,n,64,2.88,2.52,3.6,19.5,73.9,1015.42,0,0,0,0,0.033073
2018/10/29 01:48:00.013,n,164,1.44,0.72,2.52,19.6,73.8,1015.42,0,0,0,0,0.033073
2018/10/29 01:49:00.001,n,136,2.88,0.36,3.6,19.6,73.6,1015.42,0,0,0,0,0.033951
2018/10/29 01:50:00.000,n,184,3.96,3.24,4.32,19.6,73.5,1015.42,0,0,0,0,0.033951
2018/10/29 01:51:00.000,n,122,7.2,6.48,7.56,19.6,73.3,1015.42,0,0,0,0,0.028763
2018/10/29 01:52:00.005,n,154,6.48,5.4,7.2,19.6,73.3,1015.42,0,0,0,0,0.033951
2018/10/29 01:53:00.000,n,152,6.12,4.68,7.2,19.6,73.3,1015.42,0,0,0,0,0.030479
2018/10/29 01:54:00.000,n,187,2.16,2.16,2.52,19.5,73.6,1015.42,0,0,0,0,0.035706
2018/10/29 01:55:00.005,n,43,2.16,1.44,3.24,19.6,74,1015.42,0,0,0,0,0.033073
2018/10/29 01:56:00.010,n,142,7.92,7.56,8.64,19.6,73.5,1015.42,0,0,0,0,0.033073
2018/10/29 01:57:00.015,n,104,2.88,0.72,4.68,19.6,73.6,1015.42,0,0,0,0,0.032196
2018/10/29 01:58:00.000,n,118,3.6,2.88,4.68,19.6,73.6,1015.52,0,0,0,0,0.035706
2018/10/29 01:59:00.000,n,136,4.32,3.96,5.04,19.6,73.7,1015.52,0,0,0,0,0.033951
2018/10/29 02:00:00.000,n,148,6.48,5.76,7.2,19.6,73.6,1015.52,0,0,0,0,0.039177
2018/10/29 02:01:00.004,n,152,3.96,2.16,5.04,19.6,73.6,1015.62,0,0,0,0,0.034828
2018/10/29 02:02:00.010,n,170,4.68,4.68,5.04,19.6,73.5,1015.62,0,0,0,0,0.041771
2018/10/29 02:03:00.000,n,153,6.12,5.4,6.48,19.6,73.5,1015.62,0,0,0,0,0.035706
2018/10/29 02:04:00.003,n,135,2.88,2.16,3.96,19.6,73.7,1015.62,0,0,0,0,0.032196
2018/10/29 02:05:00.009,n,108,4.68,2.16,7.92,19.6,73.8,1015.62,0,0,0,0,0.033073
2018/10/29 02:06:00.013,n,130,3.24,2.16,5.04,19.6,73.7,1015.62,0,0,0,0,0.040054
2018/10/29 02:07:00.000,n,142,2.88,2.52,3.6,19.6,73.5,1015.62,0,0,0,0,0.034828
2018/10/29 02:08:00.000,n,163,5.4,4.68,6.12,19.6,73.5,1015.52,0,0,0,0,0.034828
2018/10/29 02:09:00.000,n,194,5.04,4.68,5.4,19.6,73.6,1015.52,0,0,0,0,0.033951
2018/10/29 02:10:00.004,n,152,7.92,7.2,8.28,19.6,73.4,1015.52,0,0,0,0,0.044403
2018/10/29 02:11:00.010,n,133,7.2,7.2,7.56,19.5,73.5,1015.52,0,0,0,0,0.034828
2018/10/29 02:12:00.000,n,138,10.440002,9.36,11.16,19.5,73.7,1015.52,0,0,0,0,0.034828
2018/10/29 02:13:00.003,n,128,2.52,1.44,6.12,19.5,73.6,1015.52,0,0,0,0,0.033951
2018/10/29 02:14:00.008,n,168,2.16,1.44,2.52,19.5,73.7,1015.52,0,0,0,0,0.036545
2018/10/29 02:15:00.014,n,161,5.04,3.96,6.12,19.5,73.9,1015.52,0,0,0,0,0.034828
2018/10/29 02:16:00.000,n,151,3.6,2.88,3.96,19.5,73.9,1015.52,0,0,0,0,0.031357
2018/10/29 02:17:00.000,n,212,3.96,3.6,4.68,19.5,73.9,1015.62,0,0,0,0,0.033951
2018/10/29 02:18:00.000,n,143,5.04,3.24,6.48,19.5,73.9,1015.62,0,0,0,0,0.042648
2018/10/29 02:19:00.002,n,179,5.76,4.68,6.48,19.5,74,1015.62,0,0,0,0,0.034828
2018/10/29 02:20:00.008,n,198,3.24,3.24,3.6,19.5,74,1015.62,0,0,0,0,0.035706
2018/10/29 02:21:00.000,n,180,3.6,2.88,4.32,19.5,74.2,1015.62,0,0,0,0,0.031357
2018/10/29 02:22:00.001,n,132,3.6,2.52,5.4,19.5,74.1,1015.62,0,0,0,0,0.034828
2018/10/29 02:23:00.007,n,128,4.68,3.6,5.76,19.6,74.2,1015.62,0,0,0,0,0.040054
2018/10/29 02:24:00.013,n,201,5.76,5.4,6.12,19.6,74.1,1015.62,0,0,0,0,0.036545
2018/10/29 02:25:00.001,n,182,6.84,6.48,7.56,19.6,73.8,1015.62,0,0,0,0,0.035706
2018/10/29 02:26:00.000,n,166,7.2,6.12,7.92,19.5,74,1015.62,0,0,0,0,0.038338
2018/10/29 02:27:00.000,n,175,1.44,1.08,1.8,19.5,74,1015.62,0,0,0,0,0.033951
2018/10/29 02:28:00.001,n,161,3.96,3.24,5.04,19.5,74.1,1015.72,0,0,0,0,0.034828
2018/10/29 02:29:00.006,n,175,5.4,4.68,5.76,19.5,74.1,1015.72,0,0,0,0,0.034828
2018/10/29 02:30:00.000,n,163,2.52,0.72,2.88,19.6,74.2,1015.72,0,0,0,0,0.034828
2018/10/29 02:31:00.002,n,163,5.04,4.32,5.4,19.5,74.1,1015.72,0,0,0,0,0.036545
2018/10/29 02:32:00.008,n,144,3.96,3.24,5.04,19.5,74.4,1015.72,0,0,0,0,0.033951
2018/10/29 02:33:00.013,n,154,1.8,0,2.52,19.5,74.4,1015.72,0,0,0,0,0.036545
2018/10/29 02:34:00.001,n,147,9,7.92,9.72,19.6,74.3,1015.62,0,0,0,0,0.040932
2018/10/29 02:35:00.000,n,174,8.64,8.28,9,19.5,74.3,1015.62,0,0,0,0,0.037422
2018/10/29 02:36:00.000,n,133,9.72,6.84,10.8,19.5,74.4,1015.52,0,0,0,0,0.035706
2018/10/29 02:37:00.001,n,147,3.96,2.88,5.4,19.5,74.4,1015.52,0,0,0,0,0.040054
2018/10/29 02:38:00.006,n,152,7.2,5.76,8.28,19.5,74.5,1015.52,0,0,0,0,0.036545
2018/10/29 02:39:00.000,n,142,7.92,6.84,9,19.5,74.5,1015.52,0,0,0,0,0.033951
2018/10/29 02:40:00.000,n,146,5.04,4.68,5.76,19.5,74.7,1015.52,0,0,0,0,0.034828
2018/10/29 02:41:00.007,n,134,2.16,1.08,3.24,19.5,74.8,1015.62,0,0,0,0,0.036545
2018/10/29 02:42:00.013,n,141,7.92,6.84,8.64,19.5,74.5,1015.62,0,0,0,0,0.039177
2018/10/29 02:43:00.000,n,134,4.32,2.52,6.48,19.5,74.6,1015.62,0,0,0,0,0.038338
2018/10/29 02:44:00.000,n,137,6.48,6.12,6.84,19.4,74.5,1015.72,0,0,0,0,0.033951
2018/10/29 02:45:00.000,n,121,10.440002,9,12.6,19.4,74.5,1015.72,0,0,0,0,0.034828
2018/10/29 02:46:00.002,n,136,2.52,1.44,4.32,19.4,74.9,1015.72,0,0,0,0,0.035706
2018/10/29 02:47:00.008,n,157,5.04,3.24,6.48,19.4,74.8,1015.72,0,0,0,0,0.037422
2018/10/29 02:48:00.000,n,143,10.8,9.72,11.88,19.4,74.7,1015.72,0,0,0,0,0.034828
2018/10/29 02:49:00.002,n,134,10.8,9,11.88,19.3,74.7,1015.62,0,0,0,0,0.033951
2018/10/29 02:50:00.007,n,132,6.48,5.04,7.92,19.3,74.8,1015.62,0,0,0,0,0.035706
2018/10/29 02:51:00.013,n,146,9.72,9,10.8,19.3,74.7,1015.52,0,0,0,0,0.031357
2018/10/29 02:52:00.001,n,141,8.28,6.84,9.72,19.3,75,1015.52,0,0,0,0,0.031357
2018/10/29 02:53:00.000,n,132,6.84,5.76,7.92,19.3,74.9,1015.52,0,0,0,0,0.033073
2018/10/29 02:54:00.000,n,155,5.4,5.04,5.76,19.3,75,1015.52,0,0,0,0,0.042648
2018/10/29 02:55:00.001,n,140,5.76,5.04,6.12,19.3,75.2,1015.52,0,0,0,0,0.035706
2018/10/29 02:56:00.006,n,87,5.76,4.32,7.2,19.3,75.4,1015.52,0,0,0,0,0.030479
2018/10/29 02:57:00.000,n,141,6.12,5.76,6.84,19.3,75,1015.52,0,0,0,0,0.036545
2018/10/29 02:58:00.000,n,158,4.32,3.24,5.04,19.3,75.3,1015.42,0,0,0,0,0.032196
2018/10/29 02:59:00.006,n,143,6.84,6.12,7.56,19.3,75,1015.42,0,0,0,0,0.033951
2018/10/29 03:00:00.012,n,122,6.12,5.4,7.2,19.3,75.4,1015.42,0,0,0,0,0.032196
2018/10/29 03:01:00.001,n,151,12.96,9.36,16.2,19.2,75,1015.32,0,0,0,0,0.027847
2018/10/29 03:02:00.000,n,126,4.32,3.24,5.76,19.2,75.5,1015.32,0,0,0,0,0.030479
2018/10/29 03:03:00.000,n,89,3.96,3.24,4.32,19.2,75.6,1015.32,0,0,0,0,0.032196
2018/10/29 03:04:00.002,n,125,7.56,6.48,8.28,19.2,75.7,1015.32,0,0,0,0,0.029602
2018/10/29 03:05:00.007,n,112,7.92,7.2,8.28,19.2,75.9,1015.32,0,0,0,0,0.030479
2018/10/29 03:06:00.000,n,160,4.68,4.32,5.04,19.2,76.1,1015.32,0,0,0,0,0.02697
2018/10/29 03:07:00.001,n,96,3.96,3.6,4.32,19.2,76.8,1015.32,0,0,0,0,0.029602
2018/10/29 03:08:00.006,n,134,5.76,4.32,6.48,19.2,76,1015.32,0,0,0,0,0.027847
2018/10/29 03:09:00.012,n,122,7.56,7.56,7.92,19.1,76.2,1015.32,0,0,0,0,0.028763
2018/10/29 03:10:00.000,n,114,5.4,4.68,5.76,19.1,76.7,1015.32,0,0,0,0,0.026131
2018/10/29 03:11:00.000,n,109,4.68,3.96,5.04,19.1,76.7,1015.32,0,0,0,0,0.023499
2018/10/29 03:12:00.000,n,114,3.6,2.88,4.32,19.1,77.2,1015.32,0,0,0,0,0.02697
2018/10/29 03:13:00.000,n,104,0.72,0.36,1.8,19.1,77.4,1015.32,0,0,0,0,0.025253
2018/10/29 03:14:00.006,n,75,3.24,2.88,3.96,19.1,77.5,1015.32,0,0,0,0,0.024376
2018/10/29 03:15:00.011,n,103,3.96,2.88,4.68,19.1,77.6,1015.32,0,0,0,0,0.027847
2018/10/29 03:16:00.000,n,355,1.08,0.72,2.16,19,78.1,1015.32,0,0,0,0,0.023499
2018/10/29 03:17:00.005,n,73,6.12,5.76,6.84,19,77.5,1015.32,0,0,0,0,0.024376
2018/10/29 03:18:00.010,n,109,6.12,5.4,6.48,19,77.7,1015.42,0,0,0,0,0.023499
2018/10/29 03:19:00.000,n,102,4.32,3.6,5.4,19,77.8,1015.42,0,0,0,0,0.017395
2018/10/29 03:20:00.000,n,116,2.88,1.8,4.68,18.9,77.7,1015.42,0,0,0,0,0.021782
2018/10/29 03:21:00.000,n,77,4.68,4.32,5.4,18.9,77.8,1015.42,0,0,0,0,0.020905
2018/10/29 03:22:00.001,n,46,4.32,3.24,5.04,18.9,78.2,1015.42,0,0,0,0,0.020905
2018/10/29 03:23:00.007,n,52,4.68,3.24,5.4,18.9,78.7,1015.32,0,0,0,0,0.021782
2018/10/29 03:24:00.000,n,24,2.88,1.44,3.96,18.9,78.4,1015.32,0,0,0,0,0.023499
2018/10/29 03:25:00.001,n,43,2.88,2.16,3.6,18.9,79,1015.32,0,0,0,0,0.020027
2018/10/29 03:26:00.006,n,108,2.52,0.36,3.6,19,79.2,1015.32,0,0,0,0,0.021782
2018/10/29 03:27:00.012,n,110,5.04,3.96,5.76,19,78.9,1015.32,0,0,0,0,0.018272
2018/10/29 03:28:00.000,n,143,4.32,2.88,5.04,18.9,78.6,1015.32,0,0,0,0,0.020027
2018/10/29 03:29:00.000,n,116,4.32,4.32,4.68,18.9,78.8,1015.32,0,0,0,0,0.017395
2018/10/29 03:30:00.000,n,116,3.6,1.8,5.76,18.9,79.2,1015.32,0,0,0,0,0.030479
2018/10/29 03:31:00.000,n,132,2.52,1.8,3.6,18.8,79.1,1015.22,0,0,0,0,0.03479
2018/10/29 03:32:00.006,n,129,2.88,1.8,3.24,18.8,79.4,1015.22,0,0,0,0,0.033951
2018/10/29 03:33:00.011,n,102,1.08,0.36,1.8,18.8,79.9,1015.22,0,0,0,0,0.033073
2018/10/29 03:34:00.000,n,154,1.08,0.36,2.52,18.9,80,1015.22,0,0,0,0,0.033073
2018/10/29 03:35:00.005,n,86,2.52,2.16,2.52,18.8,79.9,1015.32,0,0,0,0,0.033951
2018/10/29 03:36:00.010,n,114,2.52,1.8,3.6,18.8,80.2,1015.32,0,0,0,0,0.035706
2018/10/29 03:37:00.000,n,111,3.24,2.88,3.96,18.8,80.3,1015.32,0,0,0,0,0.033073
2018/10/29 03:38:00.000,n,114,3.6,3.24,4.32,18.8,80.2,1015.32,0,0,0,0,0.028725
2018/10/29 03:39:00.000,n,66,2.16,1.08,3.24,18.8,80.4,1015.32,0,0,0,0,0.029564
2018/10/29 03:40:00.000,n,134,1.8,1.08,2.52,18.8,80.5,1015.32,0,0,0,0,0.037422
2018/10/29 03:41:00.006,n,120,3.6,2.88,3.96,18.8,80,1015.32,0,0,0,0,0.029564
2018/10/29 03:42:00.000,n,185,1.08,0.72,1.8,18.7,80.4,1015.32,0,0,0,0,0.032196
2018/10/29 03:43:00.001,n,130,3.6,3.24,3.96,18.7,80.4,1015.32,0,0,0,0,0.030479
2018/10/29 03:44:00.007,n,123,3.96,2.52,4.68,18.7,80.2,1015.32,0,0,0,0,0.027847
2018/10/29 03:45:00.012,n,128,2.16,1.44,2.88,18.7,80.6,1015.32,0,0,0,0,0.033951
2018/10/29 03:46:00.001,n,156,1.08,0.36,2.16,18.7,80.8,1015.32,0,0,0,0,0.031357
2018/10/29 03:47:00.000,n,117,1.44,0.72,1.8,18.7,80.9,1015.32,0,0,0,0,0.028725
2018/10/29 03:48:00.000,n,118,3.96,3.6,4.68,18.6,80.7,1015.32,0,0,0,0,0.028725
2018/10/29 03:49:00.001,n,155,4.32,1.44,6.12,18.6,80.8,1015.42,0,0,0,0,0.028725
2018/10/29 03:50:00.007,n,178,2.16,1.08,3.24,18.6,81,1015.52,0,0,0,0,0.030479
2018/10/29 03:51:00.000,n,163,0.72,0.36,1.44,18.6,81.3,1015.52,0,0,0,0,0.029564
2018/10/29 03:52:00.001,n,224,0.72,0.36,1.08,18.6,81.4,1015.52,0,0,0,0,0.024376
2018/10/29 03:53:00.007,n,141,3.24,2.88,3.6,18.6,81.6,1015.52,0,0,0,0,0.032196
2018/10/29 03:54:00.012,n,172,1.08,0.72,1.44,18.6,81.5,1015.62,0,0,0,0,0.026131
2018/10/29 03:55:00.000,n,142,3.6,3.6,3.96,18.6,81.6,1015.62,0,0,0,0,0.030479
2018/10/29 03:56:00.000,n,110,2.52,1.08,2.88,18.6,81.8,1015.62,0,0,0,0,0.025215
2018/10/29 03:57:00.000,n,140,3.96,3.6,4.32,18.6,81.6,1015.62,0,0,0,0,0.029564
2018/10/29 03:58:00.000,n,185,3.96,3.6,4.32,18.6,81.8,1015.72,0,0,0,0,0.030479
2018/10/29 03:59:00.005,n,186,4.32,3.96,5.04,18.6,81.4,1015.72,0,0,0,0,0.027847
2018/10/29 04:00:00.010,n,146,3.24,2.52,3.96,18.5,81.8,1015.72,0,0,0,0,0.026131
2018/10/29 04:01:00.000,n,138,1.8,1.44,2.16,18.5,81.7,1015.72,0,0,0,0,0.027847
2018/10/29 04:02:00.005,n,144,3.24,1.08,3.96,18.5,81.8,1015.62,0,0,0,0,0.027847
2018/10/29 04:03:00.010,n,146,5.4,4.68,5.76,18.5,81.6,1015.62,0,0,0,0,0.024376
2018/10/29 04:04:00.000,n,176,3.6,1.8,3.96,18.4,81.5,1015.62,0,0,0,0,0.026131
2018/10/29 04:05:00.000,n,166,3.24,1.44,4.68,18.4,81.6,1015.62,0,0,0,0,0.028725
2018/10/29 04:06:00.000,n,158,6.12,5.4,7.2,18.4,81.9,1015.62,0,0,0,0,0.02697
2018/10/29 04:07:00.000,n,161,5.4,4.32,6.12,18.4,81.6,1015.62,0,0,0,0,0.024376
2018/10/29 04:08:00.005,n,153,5.04,5.04,5.4,18.4,81.7,1015.62,0,0,0,0,0.02697
2018/10/29 04:09:00.010,n,153,5.4,5.04,5.76,18.4,81.8,1015.62,0,0,0,0,0.024376
2018/10/29 04:10:00.000,n,156,5.76,5.04,6.84,18.4,81.9,1015.52,0,0,0,0,0.025215
2018/10/29 04:11:00.004,n,193,3.96,3.24,4.68,18.3,81.7,1015.52,0,0,0,0,0.028725
2018/10/29 04:12:00.009,n,165,3.24,2.88,3.96,18.3,81.8,1015.52,0,0,0,0,0.024376
2018/10/29 04:13:00.000,n,199,3.6,3.24,4.32,18.3,81.8,1015.52,0,0,0,0,0.021782
2018/10/29 04:14:00.000,n,171,5.04,3.6,6.12,18.4,82.1,1015.52,0,0,0,0,0.02697
2018/10/29 04:15:00.000,n,181,4.32,4.32,4.68,18.4,82,1015.62,0.02,0.6,0,0,0.023499
2018/10/29 04:16:00.002,n,205,4.68,3.6,5.4,18.4,82,1015.62,0.02,0.3,0,0,0.024376
2018/10/29 04:17:00.000,n,201,4.68,4.68,5.04,18.4,82,1015.62,0.02,0,0,0,0.023499
2018/10/29 04:18:00.000,n,173,5.76,3.24,7.2,18.5,82.2,1015.62,0.02,0,0,0,0.023499
2018/10/29 04:19:00.012,n,174,7.2,6.48,7.92,18.5,81.9,1015.62,0.02,0.1,0,0,0.020866
2018/10/29 04:20:00.009,n,168,3.96,3.24,4.32,18.5,82,1015.62,0.02,0,0,0,0.019989
2018/10/29 04:21:00.006,n,166,4.32,2.88,5.04,18.5,82,1015.52,0.02,0,0,0,0.023499
2018/10/29 04:22:00.000,n,161,9.36,9,10.08,18.5,81.5,1015.52,0.02,0,0,0,0.018272
2018/10/29 04:23:00.002,n,147,4.68,3.96,7.2,18.4,82.1,1015.52,0.02,0,0,0,0.014801
2018/10/29 04:24:00.000,n,115,1.44,0.72,1.8,18.4,81.8,1015.62,0.02,0,0,0,0.018272
2018/10/29 04:25:00.000,n,177,4.32,3.6,4.68,18.4,82,1015.62,0.02,0,0,0,0.018272
2018/10/29 04:26:00.000,n,188,6.48,5.4,8.28,18.5,81.9,1015.72,0.02,0,0,0,0.024376
2018/10/29 04:27:00.008,n,181,5.04,4.68,5.04,18.5,82,1015.72,0.02,0,0,0,0.01915
2018/10/29 04:28:00.005,n,190,6.12,4.68,8.28,18.5,82.1,1015.72,0.02,0,0,0,0.021782
2018/10/29 04:29:00.002,n,142,5.4,4.68,5.76,18.5,82.1,1015.82,0.02,0,0,0,0.018272
2018/10/29 04:30:00.016,n,180,6.12,5.04,8.28,18.5,82.1,1015.72,0.02,0,0,0,0.019989
2018/10/29 04:31:00.000,n,143,3.96,2.52,4.68,18.5,81.9,1015.72,0.02,0,0,0,0.028763
2018/10/29 04:32:00.000,n,145,8.64,7.2,9.72,18.5,82.1,1015.72,0.02,0,0,0,0.039177
2018/10/29 04:33:00.000,n,151,6.84,5.76,8.28,18.5,81.9,1015.82,0.02,0,0,0,0.033112
2018/10/29 04:34:00.004,n,204,1.08,1.08,1.44,18.5,82,1015.82,0.02,0,0,0,0.035706
2018/10/29 04:35:00.000,n,154,6.48,6.12,7.2,18.5,81.8,1015.92,0.02,0,0,0,0.036545
2018/10/29 04:36:00.000,n,164,7.2,6.48,7.56,18.5,82,1015.92,0.02,0,0,0,0.034828
2018/10/29 04:37:00.012,n,167,10.8,10.440002,11.52,18.5,81.9,1015.92,0.02,0,0,0,0.034828
2018/10/29 04:38:00.009,n,158,6.48,5.76,7.56,18.5,82,1015.92,0.02,0,0,0,0.035706
2018/10/29 04:39:00.006,n,136,5.76,4.32,7.56,18.6,82.2,1015.92,0.02,0,0,0,0.041809
2018/10/29 04:40:00.000,n,137,3.6,3.24,4.32,18.6,82,1015.82,0.02,0,0,0,0.042686
2018/10/29 04:41:00.001,n,137,3.96,2.52,4.32,18.6,82.2,1015.82,0.02,0,0,0,0.046158
2018/10/29 04:42:00.000,n,144,4.32,3.6,6.12,18.6,82.1,1015.82,0.02,0,0,0,0.055733
2018/10/29 04:43:00.000,n,59,3.24,2.88,3.6,18.6,82,1015.82,0.02,0,0,0,0.062675
2018/10/29 04:44:00.007,n,159,5.76,3.24,6.84,18.6,82.1,1015.82,0.02,0,0,0,0.074005
2018/10/29 04:45:00.004,n,247,4.32,3.6,5.04,18.6,82.2,1015.92,0.02,0,0,0,0.085335
2018/10/29 04:46:00.001,n,141,7.2,5.4,8.28,18.7,82.3,1016.02,0.02,0,0,0,0.097504
2018/10/29 04:47:00.000,n,147,9.36,7.92,11.88,18.7,81.7,1016.02,0.02,0,0,0,0.113144
2018/10/29 04:48:00.014,n,121,9,8.28,9.36,18.6,81.9,1016.02,0.02,0,0,0,0.126228
2018/10/29 04:49:00.000,n,137,7.56,7.2,7.92,18.6,82.1,1016.02,0.02,0,0,0,0.154953
2018/10/29 04:50:00.000,n,131,7.56,6.48,8.28,18.6,82.1,1016.02,0.02,0,0,0,0.187988
2018/10/29 04:51:00.006,n,131,7.56,7.2,9,18.6,82,1016.02,0.02,0,0,0,0.232315
2018/10/29 04:52:00.002,n,159,8.64,7.2,9.72,18.6,82.2,1016.02,0.02,0,0,0,0.278435
2018/10/29 04:53:00.000,n,123,7.56,6.48,7.92,18.6,82.3,1015.92,0.02,0,0,0,0.339241